W2CS Weather Reports


time (UTC)temp
C
wind
direction
speed
KPH
gust
KPH
rain 1hr
cm
rain 24hr
cm
rain mn
cm
humidity
%
barometer
mb
20260507072539 11 0 0.0 0.0 0.00 0.00 0.00 95 1006.1
20260507072038 11 0 0.0 0.0 0.00 0.00 0.00 95 1006.0
20260507071549 11 0 0.0 0.0 0.00 0.00 0.00 95 1006.1
20260507071039 11 0 0.0 0.0 0.00 0.00 0.00 95 1006.2
20260507070539 11 0 0.0 0.0 0.00 0.00 0.00 95 1006.2
20260507070105 11 0 0.0 0.0 0.00 0.00 0.00 95 1006.2
20260507065538 11 0 0.0 0.0 0.00 0.00 0.00 95 1006.2
20260507065038 11 0 0.0 0.0 0.00 0.00 0.00 95 1006.5
20260507064553 11 0 0.0 0.0 0.00 0.00 0.00 95 1006.6
20260507064038 11 0 0.0 0.0 0.00 0.00 0.00 95 1006.4
20260507063538 11 0 0.0 0.0 0.00 0.00 0.00 95 1006.4
20260507063053 11 0 0.0 0.0 0.00 0.00 0.00 95 1006.4
20260507062539 11 0 0.0 1.6 0.00 0.00 0.00 95 1006.4
20260507062040 11 0 0.0 1.6 0.00 0.00 0.00 94 1006.3
20260507061549 11 346 0.0 0.0 0.00 0.00 0.00 94 1006.2
20260507061038 11 0 0.0 0.0 0.00 0.00 0.00 95 1006.5
20260507060539 11 0 0.0 0.0 0.00 0.00 0.00 95 1006.7
20260507060050 11 0 0.0 0.0 0.00 0.00 0.00 95 1006.7
20260507055540 11 0 0.0 0.0 0.00 0.00 0.00 95 1006.9
20260507055038 11 0 0.0 0.0 0.00 0.00 0.00 95 1006.9
20260507054547 11 0 0.0 0.0 0.00 0.00 0.00 95 1006.9
20260507054038 11 0 0.0 1.6 0.00 0.00 0.00 95 1007.0
20260507053538 11 0 0.0 1.6 0.00 0.00 0.00 95 1006.9
20260507053047 11 0 0.0 1.6 0.00 0.00 0.00 95 1007.1
20260507052540 11 0 0.0 1.6 0.00 0.00 0.00 95 1007.3
20260507052039 11 346 0.0 1.6 0.00 0.00 0.00 95 1007.4
20260507051550 11 0 0.0 3.2 0.00 0.00 0.00 95 1007.4
20260507051039 11 0 0.0 3.2 0.00 0.00 0.00 95 1007.3
20260507050540 11 346 0.0 3.2 0.00 0.00 0.00 95 1007.5
20260507050107 11 0 0.0 1.6 0.00 0.00 0.00 95 1007.5
20260507045539 11 0 0.0 3.2 0.00 0.00 0.00 95 1007.4
20260507045039 11 0 0.0 3.2 0.00 0.00 0.00 94 1007.3
20260507044555 11 0 0.0 3.2 0.00 0.00 0.00 94 1007.4
20260507044041 11 346 0.0 3.2 0.00 0.00 0.00 94 1007.4
20260507043538 11 346 0.0 3.2 0.00 0.00 0.00 94 1007.4
20260507043051 11 346 0.0 3.2 0.00 0.00 0.00 94 1007.6
20260507042543 11 0 0.0 1.6 0.00 0.00 0.00 94 1007.4
20260507042041 11 0 0.0 3.2 0.00 0.00 0.00 94 1007.4
20260507041550 11 0 0.0 3.2 0.00 0.00 0.00 94 1007.5
20260507041038 11 346 0.0 3.2 0.00 0.00 0.00 94 1007.5
20260507040539 11 0 0.0 3.2 0.00 0.00 0.00 94 1007.4
20260507040051 11 346 1.6 3.2 0.00 0.00 0.00 94 1007.6
20260507035539 11 0 0.0 3.2 0.00 0.00 0.00 94 1007.7
20260507035041 11 346 0.0 3.2 0.00 0.00 0.00 94 1007.7
20260507034550 11 346 0.0 3.2 0.00 0.00 0.00 94 1007.6
20260507034039 11 346 0.0 3.2 0.00 0.00 0.00 94 1007.7
20260507033537 11 346 0.0 3.2 0.00 0.00 0.00 94 1007.7
20260507033050 11 346 0.0 4.8 0.00 0.00 0.00 94 1007.8
20260507032538 11 346 1.6 4.8 0.00 0.00 0.00 94 1007.8
20260507032038 11 264 1.6 4.8 0.00 0.00 0.00 94 1007.8
20260507031548 11 265 0.0 4.8 0.00 0.00 0.00 94 1007.9
20260507031043 11 265 1.6 4.8 0.00 0.00 0.00 94 1007.8
20260507030538 11 12 0.0 3.2 0.00 0.00 0.00 94 1007.7
20260507030052 11 12 0.0 3.2 0.00 0.00 0.00 94 1007.7
20260507025538 11 12 0.0 3.2 0.00 0.00 0.00 94 1007.7
20260507025039 11 12 0.0 3.2 0.00 0.00 0.00 94 1007.8
20260507024549 11 12 0.0 3.2 0.00 0.00 0.00 94 1007.7
20260507024040 11 12 0.0 3.2 0.00 0.00 0.00 94 1007.5
20260507023543 11 0 0.0 3.2 0.00 0.00 0.00 94 1007.6
20260507023049 11 12 0.0 3.2 0.00 0.00 0.00 94 1007.7
20260507022539 11 12 0.0 3.2 0.00 0.00 0.00 94 1007.8
20260507022038 11 12 0.0 3.2 0.00 0.00 0.00 94 1007.8
20260507021559 11 0 0.0 3.2 0.00 0.00 0.00 94 1007.8
20260507021039 11 0 0.0 3.2 0.00 0.00 0.00 94 1007.8
20260507020539 11 0 0.0 3.2 0.00 0.00 0.00 94 1007.9
20260507020048 11 0 0.0 3.2 0.00 0.00 0.00 94 1008.0
20260507015540 11 0 0.0 3.2 0.00 0.00 0.00 94 1008.1
20260507015039 11 12 0.0 3.2 0.00 0.00 0.00 94 1008.2
20260507014547 11 0 0.0 3.2 0.00 0.00 0.00 94 1008.2
20260507014039 11 0 0.0 3.2 0.00 0.00 0.00 94 1008.3
20260507013538 12 0 0.0 3.2 0.00 0.00 0.00 94 1008.3
20260507013047 11 0 0.0 3.2 0.00 0.00 0.00 94 1008.5
20260507012541 12 114 0.0 3.2 0.00 0.00 0.00 94 1008.5
20260507012038 12 0 1.6 3.2 0.00 0.00 0.00 94 1008.5
20260507011600 12 23 0.0 3.2 0.00 0.00 0.00 94 1008.8
20260507011039 12 23 1.6 3.2 0.00 0.00 0.00 94 1008.7
20260507010539 12 23 0.0 3.2 0.00 0.00 0.00 94 1008.7
20260507010048 12 75 1.6 6.4 0.00 0.00 0.00 94 1008.8
20260507005539 12 0 1.6 6.4 0.00 0.00 0.00 94 1008.7
20260507005041 12 1 0.0 4.8 0.00 0.00 0.00 94 1008.8
20260507004553 12 347 0.0 4.8 0.00 0.00 0.00 94 1008.7
20260507004040 12 14 0.0 3.2 0.00 0.00 0.00 94 1008.7
20260507003539 12 14 0.0 4.8 0.00 0.00 0.00 94 1008.7
20260507003053 12 13 1.6 6.4 0.00 0.00 0.00 94 1008.6
20260507002539 12 13 1.6 6.4 0.00 0.00 0.00 94 1008.6
20260507002038 12 325 0.0 4.8 0.00 0.00 0.00 94 1008.5
20260507001553 12 325 0.0 3.2 0.00 0.00 0.00 94 1008.5
20260507001038 12 324 0.0 3.2 0.00 0.00 0.00 94 1008.6
20260507000539 12 0 0.0 8.0 0.00 0.00 0.00 94 1008.6
20260507000054 12 0 0.0 8.0 0.00 0.00 0.00 93 1008.6
20260506235539 12 324 0.0 3.2 0.00 0.00 0.00 93 1008.5
20260506235038 12 11 0.0 3.2 0.00 0.00 0.00 93 1008.5
20260506234605 12 0 0.0 3.2 0.00 0.00 0.00 93 1008.5
20260506234039 12 10 0.0 3.2 0.00 0.00 0.00 93 1008.5
20260506233539 12 0 0.0 3.2 0.00 0.00 0.00 93 1008.4
20260506233052 12 10 0.0 3.2 0.00 0.00 0.00 94 1008.4
20260506232540 12 0 0.0 4.8 0.00 0.00 0.00 93 1008.2
20260506232038 12 0 0.0 4.8 0.00 0.00 0.00 93 1008.2
20260506231549 12 6 0.0 3.2 0.00 0.00 0.00 93 1008.5
20260506231040 12 6 0.0 3.2 0.00 0.00 0.00 93 1008.3
20260506230539 12 0 0.0 3.2 0.00 0.00 0.00 93 1008.3
20260506230056 12 0 0.0 3.2 0.00 0.00 0.00 93 1008.3
20260506225538 12 0 0.0 3.2 0.00 0.00 0.00 93 1008.3
20260506225038 12 70 0.0 4.8 0.00 0.00 0.00 93 1008.5
20260506224550 12 0 0.0 4.8 0.00 0.00 0.00 93 1008.5
20260506224039 12 0 0.0 4.8 0.00 0.00 0.00 92 1008.6
20260506223539 12 0 0.0 1.6 0.00 0.00 0.00 93 1008.6
20260506223056 12 0 0.0 1.6 0.00 0.00 0.00 93 1008.6
20260506222539 12 0 0.0 3.2 0.00 0.00 0.00 92 1008.9
20260506222043 12 0 0.0 3.2 0.00 0.00 0.00 92 1008.7
20260506221553 12 184 0.0 3.2 0.00 0.00 0.00 92 1009.0
20260506221113 12 0 0.0 3.2 0.00 0.00 0.00 92 1008.9
20260506220539 12 0 0.0 3.2 0.00 0.00 0.00 92 1009.0
20260506220053 12 184 0.0 4.8 0.00 0.00 0.00 92 1009.1
20260506215539 12 0 0.0 4.8 0.00 0.00 0.00 92 1009.3
20260506215038 12 184 0.0 4.8 0.00 0.00 0.00 91 1009.2
20260506214551 12 278 0.0 4.8 0.00 0.00 0.00 91 1009.2
20260506214040 12 0 0.0 3.2 0.00 0.00 0.00 91 1009.0
20260506213539 12 0 0.0 3.2 0.00 0.00 0.00 91 1009.1
20260506213052 13 0 0.0 3.2 0.00 0.00 0.00 91 1009.1
20260506212538 13 143 0.0 3.2 0.00 0.00 0.00 91 1009.2
20260506212039 13 0 0.0 3.2 0.00 0.00 0.00 90 1009.2
20260506211549 13 143 0.0 3.2 0.00 0.00 0.00 90 1009.3
20260506211038 13 0 0.0 3.2 0.00 0.00 0.00 91 1009.3
20260506210538 13 0 0.0 3.2 0.00 0.00 0.00 91 1009.3
20260506210048 13 104 0.0 3.2 0.00 0.00 0.00 91 1009.3
20260506205539 13 0 0.0 3.2 0.00 0.00 0.00 91 1009.3
20260506205040 13 267 0.0 3.2 0.00 0.00 0.00 90 1009.4
20260506204558 13 0 0.0 3.2 0.00 0.00 0.00 90 1009.5
20260506204043 13 0 0.0 3.2 0.00 0.00 0.00 90 1009.5
20260506203540 13 0 0.0 3.2 0.00 0.00 0.00 90 1009.5
20260506203053 13 0 0.0 4.8 0.00 0.00 0.00 90 1009.4
20260506202538 13 0 0.0 4.8 0.00 0.00 0.00 89 1009.4
20260506202040 13 0 0.0 4.8 0.00 0.00 0.00 89 1009.5
20260506201547 13 0 0.0 4.8 0.00 0.00 0.00 90 1009.5
20260506201040 14 0 0.0 4.8 0.00 0.00 0.00 90 1009.6
20260506200539 13 203 0.0 4.8 0.00 0.00 0.00 89 1009.6
20260506200106 13 269 0.0 4.8 0.00 0.00 0.00 88 1009.7
20260506195539 13 0 0.0 4.8 0.00 0.00 0.00 88 1009.8
20260506195039 14 196 0.0 9.7 0.00 0.00 0.00 88 1009.8
20260506194558 14 104 1.6 9.7 0.00 0.00 0.00 87 1010.1
20260506194038 14 282 0.0 3.2 0.00 0.00 0.00 86 1010.1
20260506193541 14 279 0.0 4.8 0.00 0.00 0.00 85 1010.1
20260506193050 15 279 0.0 4.8 0.00 0.00 0.00 85 1010.1
20260506192538 15 278 1.6 4.8 0.00 0.00 0.00 85 1010.2
20260506192041 15 357 0.0 4.8 0.00 0.00 0.00 85 1010.3
20260506191553 15 0 1.6 4.8 0.00 0.00 0.00 85 1010.3
20260506191037 15 341 0.0 4.8 0.00 0.00 0.00 85 1010.3
20260506190538 15 0 1.6 4.8 0.00 0.00 0.00 85 1010.3
20260506190048 15 242 0.0 4.8 0.00 0.00 0.00 85 1010.3
20260506185538 15 297 1.6 4.8 0.00 0.00 0.00 85 1010.3
20260506185041 15 19 0.0 4.8 0.00 0.00 0.00 84 1010.3
20260506184605 15 33 1.6 8.0 0.00 0.00 0.00 84 1010.3
20260506184038 16 324 1.6 8.0 0.00 0.00 0.00 83 1010.3
20260506183539 16 29 1.6 4.8 0.00 0.00 0.00 82 1010.4
20260506183103 16 14 1.6 4.8 0.00 0.00 0.00 83 1010.4
20260506182539 16 353 1.6 4.8 0.00 0.00 0.00 82 1010.7
20260506182038 16 50 0.0 4.8 0.00 0.00 0.00 83 1010.7
20260506181559 16 131 1.6 4.8 0.00 0.00 0.00 83 1010.6
20260506181040 16 18 1.6 8.0 0.00 0.00 0.00 83 1010.8
20260506180543 16 0 1.6 8.0 0.00 0.00 0.00 83 1010.8
20260506180055 16 240 0.0 8.0 0.00 0.00 0.00 82 1011.0
20260506175542 16 330 1.6 6.4 0.00 0.00 0.00 82 1011.0
20260506175040 17 126 0.0 6.4 0.00 0.00 0.00 81 1011.1
20260506174554 17 318 1.6 6.4 0.00 0.00 0.00 82 1011.2
20260506174039 17 0 1.6 3.2 0.00 0.00 0.00 81 1011.5
20260506173539 17 0 0.0 4.8 0.00 0.00 0.00 81 1011.5
20260506173055 17 280 1.6 4.8 0.00 0.00 0.00 80 1011.5
20260506172539 17 161 1.6 4.8 0.00 0.00 0.00 80 1011.4
20260506172039 17 181 1.6 6.4 0.00 0.00 0.00 81 1011.4
20260506171550 17 327 1.6 6.4 0.00 0.00 0.00 81 1011.5
20260506171039 17 37 1.6 4.8 0.00 0.00 0.00 80 1011.5
20260506170538 17 56 1.6 4.8 0.00 0.00 0.00 80 1011.5
20260506170053 17 307 1.6 8.0 0.00 0.00 0.00 80 1011.6
20260506165540 17 353 1.6 8.0 0.00 0.00 0.00 82 1011.7
20260506165040 17 0 1.6 6.4 0.00 0.00 0.00 82 1011.7
20260506164551 17 319 1.6 6.4 0.00 0.00 0.00 84 1011.9
20260506164038 16 160 1.6 6.4 0.00 0.00 0.00 83 1012.0
20260506163535 16 353 1.6 6.4 0.00 0.00 0.00 82 1011.9
20260506163055 16 21 1.6 6.4 0.00 0.00 0.00 83 1012.1
20260506162539 16 289 1.6 9.7 0.00 0.00 0.00 83 1012.2
20260506162040 16 0 0.0 9.7 0.00 0.00 0.00 83 1012.3
20260506161603 16 0 1.6 9.7 0.00 0.00 0.00 81 1012.2
20260506161039 17 80 1.6 6.4 0.00 0.00 0.00 80 1012.3
20260506160540 17 352 0.0 4.8 0.00 0.00 0.00 79 1012.4
20260506160056 17 149 1.6 6.4 0.00 0.00 0.00 79 1012.5
20260506155539 18 178 1.6 6.4 0.00 0.00 0.00 77 1012.7
20260506155037 18 0 0.0 4.8 0.00 0.00 0.00 77 1012.8
20260506154556 19 185 1.6 6.4 0.00 0.00 0.00 79 1012.6
20260506154044 18 320 1.6 6.4 0.00 0.00 0.00 80 1012.8
20260506153539 19 0 1.6 8.0 0.00 0.00 0.00 78 1012.8
20260506153045 18 271 1.6 8.0 0.00 0.00 0.00 80 1012.7
20260506152539 18 91 1.6 6.4 0.00 0.00 0.00 78 1012.9
20260506152043 18 304 1.6 4.8 0.00 0.00 0.00 79 1012.9
20260506151602 18 0 0.0 8.0 0.00 0.00 0.00 77 1013.1
20260506151038 18 236 1.6 8.0 0.00 0.00 0.00 80 1013.0
20260506150540 18 264 0.0 6.4 0.00 0.00 0.00 79 1013.1
20260506150049 18 165 1.6 6.4 0.00 0.00 0.00 81 1013.0
20260506145539 18 0 1.6 4.8 0.00 0.00 0.00 80 1012.9
20260506145038 18 0 0.0 4.8 0.00 0.00 0.00 78 1012.7
20260506144551 18 0 0.0 4.8 0.00 0.00 0.00 81 1013.0
20260506144041 18 0 0.0 3.2 0.00 0.00 0.00 82 1012.9
20260506143539 17 164 0.0 4.8 0.00 0.00 0.00 82 1013.0
20260506143056 17 164 0.0 4.8 0.00 0.00 0.00 81 1012.7
20260506142538 17 170 0.0 4.8 0.00 0.00 0.00 82 1012.8
20260506142038 17 89 0.0 8.0 0.00 0.00 0.00 83 1012.9
20260506141554 17 18 1.6 8.0 0.00 0.00 0.00 81 1012.7
20260506141039 17 226 0.0 4.8 0.00 0.00 0.00 83 1012.5
20260506140542 17 0 0.0 3.2 0.00 0.00 0.00 80 1012.6
20260506140104 17 326 1.6 4.8 0.00 0.00 0.00 80 1012.8
20260506135539 18 0 1.6 4.8 0.00 0.00 0.00 81 1012.8
20260506135039 18 148 1.6 4.8 0.00 0.00 0.00 80 1012.8
20260506134550 18 331 1.6 6.4 0.00 0.00 0.00 82 1012.9
20260506134039 18 255 1.6 6.4 0.00 0.00 0.00 81 1012.9
20260506133539 18 25 1.6 6.4 0.00 0.00 0.00 82 1013.0
20260506133051 17 50 1.6 4.8 0.00 0.00 0.00 82 1012.9
20260506132539 17 332 1.6 4.8 0.00 0.00 0.00 83 1012.8
20260506132043 17 6 1.6 8.0 0.00 0.00 0.00 82 1012.8
20260506131553 17 0 1.6 8.0 0.00 0.00 0.00 83 1012.7
20260506131040 17 104 1.6 6.4 0.00 0.00 0.00 83 1012.6
20260506130540 17 295 1.6 6.4 0.00 0.00 0.00 83 1012.6
20260506125539 17 106 0.0 4.8 0.00 0.00 0.00 84 1012.8
20260506125040 16 302 1.6 9.7 0.00 0.00 0.00 84 1012.7
20260506124550 16 131 0.0 9.7 0.00 0.00 0.00 85 1012.6
20260506124039 16 67 0.0 8.0 0.00 0.00 0.00 85 1012.7
20260506123539 16 85 0.0 4.8 0.00 0.00 0.00 86 1012.8
20260506123048 16 267 0.0 3.2 0.00 0.00 0.00 86 1012.9
20260506122539 15 173 0.0 3.2 0.00 0.00 0.00 86 1012.8
20260506122038 15 0 0.0 6.4 0.00 0.00 0.00 86 1012.8
20260506121547 15 0 0.0 6.4 0.00 0.00 0.00 87 1012.7
20260506121039 15 347 1.6 6.4 0.00 0.00 0.00 87 1012.7
20260506120539 15 0 1.6 6.4 0.00 0.00 0.00 87 1012.8
20260506120053 15 321 0.0 4.8 0.00 0.00 0.00 88 1012.8
20260506115539 14 0 1.6 4.8 0.00 0.00 0.00 89 1012.9
20260506115039 14 0 0.0 4.8 0.00 0.00 0.00 89 1013.0
20260506114548 13 0 1.6 4.8 0.00 0.00 0.00 90 1012.9
20260506114039 13 197 0.0 4.8 0.00 0.00 0.00 91 1013.0
20260506113539 13 92 1.6 4.8 0.00 0.00 0.00 91 1013.0
20260506113049 12 0 0.0 4.8 0.00 0.00 0.00 91 1013.0
20260506112540 12 0 0.0 4.8 0.00 0.00 0.00 90 1013.1
20260506112039 12 358 1.6 4.8 0.00 0.00 0.00 91 1013.0
20260506111549 12 351 0.0 4.8 0.00 0.00 0.00 91 1013.0
20260506111039 12 129 0.0 3.2 0.00 0.00 0.00 91 1012.9
20260506110539 12 322 0.0 4.8 0.00 0.00 0.00 92 1013.0
20260506110053 12 322 0.0 4.8 0.00 0.00 0.00 92 1012.9
20260506105539 12 8 0.0 6.4 0.00 0.00 0.00 93 1012.9
20260506105039 12 229 0.0 6.4 0.00 0.00 0.00 93 1013.0
20260506104610 12 18 0.0 4.8 0.00 0.00 0.00 93 1013.0
20260506104038 12 345 1.6 4.8 0.00 0.00 0.00 93 1013.0
20260506103539 11 11 0.0 3.2 0.00 0.00 0.00 93 1012.9
20260506103048 11 10 0.0 4.8 0.00 0.00 0.00 92 1013.1
20260506102540 11 10 0.0 4.8 0.00 0.00 0.00 92 1013.0
20260506102040 11 0 0.0 3.2 0.00 0.00 0.00 93 1012.7
20260506101554 11 164 0.0 3.2 0.00 0.00 0.00 93 1012.7
20260506101039 11 0 0.0 4.8 0.00 0.00 0.00 93 1012.9
20260506100539 11 0 0.0 4.8 0.00 0.00 0.00 93 1012.8
20260506100048 11 357 0.0 3.2 0.00 0.00 0.00 92 1012.8
20260506095543 11 204 0.0 3.2 0.00 0.00 0.00 92 1012.7
20260506095039 11 0 0.0 3.2 0.00 0.00 0.00 92 1012.7
20260506094556 11 204 0.0 3.2 0.00 0.00 0.00 92 1012.8
20260506094038 11 204 0.0 3.2 0.00 0.00 0.00 92 1012.8
20260506093542 11 0 0.0 4.8 0.00 0.00 0.00 92 1012.9
20260506093055 11 204 0.0 4.8 0.00 0.00 0.00 92 1012.8
20260506092542 11 204 0.0 4.8 0.00 0.00 0.00 92 1012.8
20260506092039 11 0 0.0 4.8 0.00 0.00 0.00 92 1012.9
20260506091547 11 0 0.0 3.2 0.00 0.00 0.00 92 1013.0
20260506091040 11 0 0.0 3.2 0.00 0.00 0.00 92 1013.1
20260506090537 11 0 0.0 3.2 0.00 0.00 0.00 92 1013.1
20260506090051 11 0 0.0 17.7 0.00 0.00 0.00 92 1013.1
20260506085536 12 0 0.0 17.7 0.00 0.00 0.00 92 1013.1
20260506085039 12 8 0.0 17.7 0.00 0.00 0.00 92 1013.2
20260506084552 12 0 0.0 3.2 0.00 0.00 0.00 92 1013.1
20260506084039 12 0 0.0 3.2 0.00 0.00 0.00 92 1013.1
20260506083539 12 0 0.0 3.2 0.00 0.00 0.00 92 1013.1
20260506083051 12 241 0.0 3.2 0.00 0.00 0.00 92 1013.2
20260506082542 12 0 0.0 4.8 0.00 0.00 0.00 92 1013.3
20260506082040 12 33 0.0 4.8 0.00 0.00 0.00 92 1013.2
20260506081550 12 210 0.0 3.2 0.00 0.00 0.00 93 1013.2
20260506081038 12 0 0.0 3.2 0.00 0.00 0.00 93 1013.2
20260506080537 12 0 0.0 3.2 0.00 0.00 0.00 93 1013.2
20260506073051 11 299 0.0 4.8 0.00 0.00 0.00 93 1013.2